Find Starlink 32233

NORAD ID: 60434 Int'l Des: 2024-144 Owner: SPXS Country: US Constellation: starlink operational
LEOCIRCULAR

Live Position

Loading 3D Globe...

About Starlink 32233

Description loading...

Upcoming Passes

Passes for default location (London). Set your location on the main map for personalized predictions.

Altitude History

Loading altitude history...

Two-Line Element Set

1 60434U 24144K 26124.16668980 .00000958 00000-0 39445-4 0 9992
2 60434 53.1594 319.3064 0001122 76.3900 329.5832 15.34428299 5861
Epoch: May 4, 2026 • Age: 10 hours

Current Status

Altitude 462.7 km
Velocity 7.64 km/s
Sub-Earth Point 14.68°N, 55.44°E
Launch Date Aug 12, 2024
Age 1.7 years
Type internet

Technical Details

Classification Payload
Mass 730.00 kg
Dry Mass 700.00 kg
Total Mass 730.00 kg
Length 0.30 m
Diameter 4.10 m
Span 29.00 m
Shape Box + pan
Manufacturer SPXS
Bus Type Starlink V2M
Phase Status In Orbit
Owner/State SPXS/US

Most Searched